Knox, IN

1:36 AM CST on February 22, 2017 (GMT -0600)
Starke County

Weather History for KOXI - March, 2013

Change the Weather History Date:

Tuesday, March 5, 2013

  Actual Average (KSBN) Record (KSBN)
Temperature  
Mean Temperature 30 °F -  
Max Temperature 33 °F 40 °F 76 °F (1983)
Min Temperature 27 °F 26 °F 1 °F (1978)
Degree Days  
Heating Degree Days 35    
Moisture  
Dew Point 29 °F    
Average Humidity 94    
Maximum Humidity 100    
Minimum Humidity 77    
Precipitation  
Precipitation 0.00 in - - ()
Sea Level Pressure  
Sea Level Pressure 29.84 in    
Wind  
Wind Speed 11 mph (ENE)    
Max Wind Speed 20 mph    
Max Gust Speed 26 mph    
Visibility 5 miles    
Events      
Averages and records for this station are not official NWS values.
T = Trace of Precipitation, MM = Missing Value Source: NWS Daily Summary

Daily Weather History Graph

Daily Weather History Graph

Search for Another Location

Airport or City:

Trip Planner

Search our weather history database for the weather conditions in past years. The results will help you decide how hot, cold, wet, or windy it might be!

Date:

Astronomy

Mar. 05, 2013 Rise Set
Actual Time 6:14 AM CST 5:42 PM CST
Civil Twilight 5:46 AM CST 6:09 PM CST
Nautical Twilight 5:14 AM CST 6:41 PM CST
Astronomical Twilight 4:42 AM CST 7:14 PM CST
Moon 1:28 AM CST (3/5) 11:18 AM CST (3/5)
Length of Visible Light 12h 23m
Length of Day
11h 27m
Last Quarter, 40% of the Moon is Illuminated
Mar 5
Last Quarter
Mar 11
New
Mar 19
First Quarter
Mar 27
Full
Apr 2
Last Quarter

Hourly Weather History & Observations

Time (CST) Temp. Windchill Dew Point Humidity Pressure Visibility Wind Dir Wind Speed Gust Speed Precip Events Conditions
12:15 AM 31.3 °F 23.9 °F 30.0 °F 95% 29.99 in 10.0 mi East 8.1 mph - N/A   Overcast
12:35 AM 31.3 °F 23.3 °F 30.0 °F 95% 29.98 in 10.0 mi East 9.2 mph - N/A   Overcast
12:55 AM 31.5 °F 23.5 °F 30.0 °F 94% 29.98 in 10.0 mi East 9.2 mph - N/A   Overcast
1:15 AM 31.5 °F 24.2 °F 30.0 °F 94% 29.98 in 10.0 mi East 8.1 mph - N/A   Overcast
1:35 AM 31.1 °F 23.1 °F 30.0 °F 96% 29.97 in 10.0 mi East 9.2 mph - N/A   Overcast
1:55 AM 31.1 °F 23.1 °F 29.8 °F 95% 29.96 in 10.0 mi East 9.2 mph - N/A   Overcast
2:15 AM 31.1 °F 22.4 °F 30.0 °F 96% 29.95 in 10.0 mi East 10.4 mph - N/A   Overcast
2:35 AM 31.3 °F 23.3 °F 30.0 °F 95% 29.94 in 10.0 mi East 9.2 mph - N/A   Overcast
2:55 AM 31.5 °F 23.5 °F 30.2 °F 95% 29.93 in 7.0 mi East 9.2 mph - N/A   Overcast
3:15 AM 31.8 °F 23.3 °F 30.2 °F 94% 29.92 in 10.0 mi East 10.4 mph - N/A   Overcast
3:35 AM 31.8 °F 22.3 °F 30.2 °F 94% 29.92 in 10.0 mi East 12.7 mph 16.1 mph N/A   Overcast
3:55 AM 31.8 °F 23.3 °F 30.2 °F 94% 29.92 in 10.0 mi East 10.4 mph - N/A   Overcast
4:15 AM 31.8 °F 23.9 °F 29.8 °F 92% 29.92 in 10.0 mi East 9.2 mph - N/A   Overcast
4:35 AM 31.8 °F 23.3 °F 29.3 °F 90% 29.91 in 10.0 mi East 10.4 mph - N/A   Overcast
4:55 AM 31.8 °F 23.3 °F 29.3 °F 90% 29.90 in 10.0 mi East 10.4 mph - N/A   Overcast
5:15 AM 32.0 °F 23.0 °F 29.3 °F 90% 29.90 in 10.0 mi East 11.5 mph - N/A   Overcast
5:35 AM 32.0 °F 23.0 °F 29.1 °F 89% 29.91 in 10.0 mi East 11.5 mph - N/A   Overcast
5:55 AM 32.0 °F 22.5 °F 28.9 °F 88% 29.90 in 10.0 mi East 12.7 mph - N/A   Overcast
6:15 AM 32.0 °F 22.5 °F 28.6 °F 87% 29.90 in 10.0 mi East 12.7 mph - N/A   Overcast
6:35 AM 32.0 °F 23.6 °F 28.4 °F 87% 29.90 in 10.0 mi East 10.4 mph - N/A   Overcast
7:15 AM 32.0 °F 22.5 °F 28.0 °F 85% 29.89 in 10.0 mi East 12.7 mph - N/A   Overcast
7:35 AM 32.2 °F 22.7 °F 27.7 °F 83% 29.88 in 10.0 mi East 12.7 mph 21.9 mph N/A   Overcast
7:55 AM 32.7 °F 23.0 °F 27.1 °F 80% 29.88 in 10.0 mi East 13.8 mph - N/A   Overcast
8:15 AM 32.9 °F 25.3 °F 27.0 °F 79% 29.88 in 10.0 mi East 9.2 mph - N/A   Overcast
8:35 AM 33.1 °F 24.4 °F 26.6 °F 77% 29.87 in 10.0 mi East 11.5 mph - N/A   Overcast
8:55 AM 33.1 °F 23.0 °F 26.6 °F 77% 29.86 in 10.0 mi East 15.0 mph 23.0 mph N/A   Overcast
9:15 AM 33.1 °F 23.4 °F 26.6 °F 77% 29.86 in 10.0 mi ESE 13.8 mph - N/A   Overcast
9:35 AM 33.1 °F 22.2 °F 26.8 °F 78% 29.86 in 3.0 mi East 17.3 mph 20.7 mph N/A   Overcast
10:15 AM 32.0 °F 22.1 °F 29.1 °F 89% 29.85 in 1.2 mi East 13.8 mph 18.4 mph N/A   Overcast
10:35 AM 32.0 °F 21.2 °F 29.8 °F 92% 29.82 in 1.5 mi East 16.1 mph 19.6 mph N/A   Overcast
10:55 AM 32.0 °F 22.1 °F 30.0 °F 92% 29.82 in 2.5 mi East 13.8 mph 20.7 mph N/A   Overcast
11:15 AM 32.0 °F 23.0 °F 30.2 °F 93% 29.81 in 2.5 mi East 11.5 mph 19.6 mph N/A   Overcast
11:35 AM 32.0 °F 23.0 °F 30.2 °F 93% 29.81 in 3.0 mi East 11.5 mph - N/A   Overcast
11:55 AM 32.0 °F 23.0 °F 30.2 °F 93% 29.81 in 3.0 mi East 11.5 mph - N/A   Overcast
12:15 PM 32.0 °F 24.2 °F 30.4 °F 94% 29.79 in 1.8 mi East 9.2 mph - N/A   Overcast
12:35 PM 32.0 °F 23.0 °F 30.7 °F 95% 29.78 in 1.2 mi East 11.5 mph - N/A   Overcast
12:55 PM 32.0 °F 24.8 °F 30.7 °F 95% 29.77 in 1.2 mi East 8.1 mph - N/A   Overcast
1:15 PM 31.8 °F 25.4 °F 30.7 °F 96% 29.77 in 0.8 mi East 6.9 mph - N/A   Overcast
1:35 PM 31.5 °F 22.9 °F 30.7 °F 97% 29.75 in 0.5 mi ENE 10.4 mph - N/A   Overcast
1:55 PM 31.3 °F 22.7 °F 30.7 °F 98% 29.74 in 0.8 mi ENE 10.4 mph - N/A   Overcast
2:15 PM 31.1 °F 24.5 °F 30.7 °F 99% 29.74 in 0.8 mi ENE 6.9 mph - N/A   Overcast
2:35 PM 30.9 °F 22.8 °F 30.4 °F 98% 29.74 in 0.5 mi ENE 9.2 mph - N/A   Overcast
2:55 PM 30.7 °F 21.4 °F 30.2 °F 98% 29.73 in 0.5 mi NE 11.5 mph - N/A   Overcast
3:15 PM 30.6 °F 22.4 °F 30.0 °F 98% 29.73 in 0.8 mi NE 9.2 mph - N/A   Overcast
3:35 PM 30.4 °F 21.5 °F 29.8 °F 98% 29.73 in 0.8 mi NE 10.4 mph - N/A   Overcast
3:55 PM 30.0 °F 22.4 °F 29.5 °F 98% 29.73 in 0.5 mi NE 8.1 mph 16.1 mph N/A   Overcast
4:15 PM 29.7 °F 21.3 °F 29.3 °F 99% 29.74 in 0.5 mi NE 9.2 mph - N/A   Overcast
4:35 PM 29.3 °F 20.2 °F 29.1 °F 99% 29.75 in 0.2 mi NE 10.4 mph - N/A   Overcast
4:55 PM 29.1 °F 20.0 °F 28.9 °F 99% 29.75 in 0.5 mi NNE 10.4 mph - N/A   Overcast
5:15 PM 28.8 °F 20.9 °F 28.4 °F 99% 29.76 in 0.5 mi NNE 8.1 mph - N/A   Overcast
5:35 PM 28.4 °F 16.6 °F 28.2 °F 99% 29.76 in 0.5 mi NNE 16.1 mph - N/A   Overcast
5:55 PM 28.4 °F 19.7 °F 28.4 °F 100% 29.77 in 0.2 mi NNE 9.2 mph - N/A   Overcast
6:15 PM 28.2 °F 18.3 °F 28.0 °F 99% 29.78 in 0.8 mi NNE 11.5 mph - N/A   Overcast
6:35 PM 28.0 °F 19.3 °F 27.7 °F 99% 29.78 in 1.0 mi NNE 9.2 mph - N/A   Overcast
6:55 PM 27.9 °F 19.1 °F 27.5 °F 99% 29.78 in 0.8 mi North 9.2 mph - N/A   Overcast
7:15 PM 27.9 °F 19.1 °F 27.5 °F 99% 29.78 in 1.0 mi North 9.2 mph - N/A   Overcast
7:35 PM 28.0 °F 19.3 °F 27.9 °F 99% 29.79 in 0.8 mi North 9.2 mph - N/A   Overcast
7:55 PM 28.0 °F 20.0 °F 27.9 °F 99% 29.79 in 1.5 mi North 8.1 mph - N/A   Overcast
8:15 PM 28.0 °F 20.0 °F 27.9 °F 99% 29.80 in 1.5 mi North 8.1 mph - N/A   Overcast
8:35 PM 28.2 °F 19.5 °F 28.0 °F 99% 29.80 in 0.8 mi NNW 9.2 mph - N/A   Overcast
8:55 PM 28.4 °F 18.0 °F 28.4 °F 100% 29.80 in 0.8 mi NNW 12.7 mph - N/A   Overcast
9:15 PM 28.8 °F 17.5 °F 28.8 °F 100% 29.81 in 0.8 mi North 15.0 mph - N/A   Overcast
9:35 PM 29.1 °F 17.1 °F 28.9 °F 99% 29.82 in 1.0 mi North 17.3 mph - N/A   Overcast
9:55 PM 28.9 °F 17.3 °F 28.8 °F 99% 29.83 in 1.5 mi North 16.1 mph - N/A   Overcast
10:15 PM 29.1 °F 17.1 °F 28.9 °F 99% 29.84 in 1.5 mi North 17.3 mph - N/A   Overcast
10:35 PM 29.1 °F 17.9 °F 28.8 °F 99% 29.85 in 1.2 mi North 15.0 mph - N/A   Overcast
10:55 PM 28.8 °F 15.9 °F 28.4 °F 99% 29.85 in 1.8 mi North 19.6 mph 23.0 mph N/A   Overcast
11:15 PM 28.6 °F 15.6 °F 28.0 °F 98% 29.86 in 2.0 mi North 19.6 mph 26.5 mph N/A   Overcast
11:35 PM 28.4 °F 16.2 °F 27.5 °F 96% 29.87 in 2.5 mi North 17.3 mph 24.2 mph N/A   Overcast
11:55 PM 28.4 °F 16.2 °F 27.1 °F 95% 29.88 in 3.0 mi North 17.3 mph - N/A   Overcast